Wind_Speed
26 26 26 26 26 26 26 26 26 26 26 26 25 23 21 22 23 24 26 28 29 29 29 29 29 29 28 28 27 27 27 28 29 30 31 33 33 34 36 38 39 40 41 41 42 43 45 46 48 49 49 50 50 49 47 47 47 45 46 50 52 52 52 51 50 49 48 46 45 45 45 44 43 42 41 39 39 42 44 46 48 51 56 61 66
28 28 29 29 29 29 29 29 29 29 28 28 27 25 24 25 26 28 29 30 30 31 30 31 31 31 30 29 29 29 29 30 31 32 34 35 36 36 37 39 41 42 43 43 44 45 47 48 49 50 51 52 54 52 49 48 46 46 50 51 52 54 54 53 52 50 49 48 46 46 46 45 44 43 41 40 41 44 46 47 51 55 60 65 70
31 32 32 31 31 31 32 32 31 31 31 30 29 28 26 27 29 31 32 31 32 32 32 33 33 33 32 32 31 31 31 32 33 35 36 37 38 38 39 40 42 43 44 45 46 47 49 50 50 51 51 53 55 52 49 49 46 48 52 52 52 55 55 54 53 51 51 49 48 47 46 45 44 43 41 42 44 45 47 50 55 60 64 69 74
35 35 34 33 33 33 33 33 33 33 32 31 31 30 28 28 30 32 32 33 34 34 34 34 35 35 34 34 34 34 34 34 35 37 38 40 40 40 41 42 43 44 45 46 47 47 50 51 52 52 53 55 54 50 51 52 48 49 53 50 51 57 56 54 54 52 52 51 50 49 47 45 44 41 41 43 45 46 48 54 60 64 68 72 77
37 37 36 36 35 35 35 35 35 34 34 33 32 31 30 31 31 33 34 35 36 36 35 36 38 37 36 37 37 37 37 37 37 39 40 42 42 42 43 44 45 46 47 48 48 49 51 53 54 54 54 56 54 50 52 53 49 51 53 48 51 58 57 55 55 53 53 53 52 50 48 46 44 43 43 44 45 47 51 58 63 67 71 76 80
39 39 39 38 37 37 37 37 36 36 35 35 34 33 32 33 34 35 35 37 38 38 37 38 40 39 39 40 41 40 40 40 40 41 43 44 44 44 45 46 47 47 48 50 50 50 52 55 56 56 56 56 53 50 52 51 50 54 52 46 50 59 59 56 55 54 53 54 53 51 49 47 46 47 47 46 47 51 55 61 67 71 75 79 81
41 41 41 40 40 39 38 38 38 38 37 36 36 35 35 36 36 37 37 38 40 40 40 40 42 42 42 43 43 43 43 43 43 44 46 46 46 46 48 49 49 49 50 52 53 53 54 56 58 58 58 56 52 49 51 51 51 53 51 47 51 59 60 57 56 55 54 55 55 53 50 48 49 50 49 50 54 58 60 65 72 76 79 81 83
43 43 42 42 41 40 40 39 39 39 39 39 38 38 38 38 39 39 39 40 41 43 43 42 43 44 45 45 45 45 46 46 45 47 48 47 47 48 51 52 51 51 52 54 55 55 55 58 60 60 59 57 54 51 50 50 49 52 53 50 53 59 61 58 57 56 56 57 56 53 50 51 52 52 53 55 60 64 66 69 74 79 81 83 85
44 44 44 43 42 41 40 40 41 41 41 41 41 41 41 41 41 41 42 42 43 45 46 45 46 47 48 47 46 47 48 48 48 49 48 48 50 51 53 54 54 54 55 57 57 57 58 60 62 62 60 57 55 52 49 47 48 52 53 51 54 59 60 58 57 58 58 57 56 53 52 53 55 56 58 60 62 67 73 75 77 81 83 86 89
46 45 46 46 44 42 42 42 43 44 44 44 44 43 44 44 44 44 45 45 45 48 50 49 49 50 50 49 48 49 50 50 50 50 50 51 53 54 56 57 57 57 58 59 59 59 61 62 63 63 57 52 53 53 50 47 48 50 50 51 55 59 59 57 57 58 59 58 57 55 54 55 58 60 61 63 65 71 77 80 82 84 86 89 92
49 49 50 50 47 45 45 46 46 47 47 47 47 46 47 47 47 47 48 47 48 50 52 52 52 53 52 51 51 52 52 52 52 52 52 54 55 57 58 59 60 60 61 62 62 61 63 63 62 58 52 51 54 54 50 47 47 48 50 54 58 59 58 57 58 59 60 59 57 57 57 58 62 64 64 66 71 75 79 82 84 86 89 92 93
52 52 53 53 51 49 49 50 50 50 50 50 50 50 50 50 50 51 51 50 50 51 54 55 55 54 54 53 54 55 54 54 55 55 55 56 57 59 60 61 62 63 63 64 64 64 64 62 57 51 51 53 54 50 46 47 47 47 52 58 60 59 58 57 59 61 61 60 59 59 60 62 65 66 67 70 76 79 81 84 86 88 91 93 92
56 55 56 56 55 54 54 54 54 54 54 53 53 53 53 53 54 54 53 53 52 53 55 57 57 57 56 56 56 57 57 57 57 57 57 57 59 60 61 63 63 64 65 66 67 67 66 60 53 48 48 49 48 45 44 46 46 47 54 60 60 59 59 59 61 62 62 61 62 63 64 65 66 68 71 75 79 81 84 86 88 90 92 93 92
59 59 58 58 59 58 58 58 58 57 57 56 56 55 56 57 57 57 56 55 54 55 57 59 59 59 59 59 58 59 59 59 59 59 58 59 60 61 63 64 64 65 66 67 67 67 61 51 44 43 44 45 44 43 45 47 48 51 57 61 60 60 61 62 63 63 63 64 65 67 67 67 67 70 74 78 81 83 86 89 91 92 94 95 93
61 61 61 61 62 62 62 62 62 61 60 59 58 58 59 60 60 60 59 57 57 57 59 60 61 62 62 61 61 61 61 62 61 60 60 60 61 63 65 65 65 66 67 66 64 59 49 39 34 35 39 42 41 43 46 50 53 57 60 60 61 63 65 65 65 65 66 68 69 70 69 68 69 73 77 81 83 85 89 92 93 95 96 96 94
64 64 64 64 65 65 66 66 65 64 63 61 61 62 63 64 64 63 61 60 59 60 61 63 63 63 63 63 63 63 64 64 63 62 62 62 62 64 65 65 65 67 67 63 56 48 40 35 33 33 35 38 41 45 49 53 57 60 61 61 64 67 68 67 66 67 69 72 73 71 69 70 73 77 81 83 85 88 91 94 95 97 98 97 95
67 67 67 67 68 69 69 68 68 67 65 63 63 65 66 66 66 66 64 62 61 61 63 64 65 64 65 65 65 65 65 65 64 64 64 63 64 65 65 65 65 66 65 58 49 42 38 38 38 37 38 41 45 48 52 56 59 61 62 64 68 70 70 68 68 70 73 75 74 72 71 73 77 81 83 85 88 91 94 95 97 99 100 98 95
72 72 71 72 72 73 72 70 69 68 67 67 67 67 67 68 68 67 66 64 62 62 64 65 66 66 67 67 66 66 66 66 66 66 66 65 65 66 66 65 65 65 63 55 46 41 41 42 43 44 45 48 50 51 54 58 60 62 64 67 71 72 71 69 70 74 77 76 73 73 74 77 81 84 86 88 91 94 96 97 99 101 100 98 95
75 76 76 76 76 76 75 73 71 71 71 71 70 70 69 69 69 68 66 65 65 64 65 66 67 68 68 69 67 67 67 67 68 69 68 67 67 67 66 65 64 64 62 53 45 42 44 47 50 51 51 54 55 54 56 59 61 65 68 70 73 74 72 71 74 77 77 75 74 75 77 81 84 86 88 92 95 97 98 99 100 101 100 98 95
75 78 80 79 78 78 78 76 75 75 74 74 74 74 73 73 71 69 67 67 67 67 67 69 69 70 70 70 69 69 69 69 70 72 70 69 70 70 67 65 65 63 58 51 47 46 50 56 59 58 56 58 58 58 59 61 64 68 71 73 76 75 73 75 78 78 77 76 76 77 81 84 86 88 91 95 98 99 99 99 100 101 100 99 96
71 75 77 78 79 80 80 79 78 78 77 77 77 77 78 77 75 73 70 70 70 71 71 72 73 73 72 72 71 71 71 72 74 74 72 71 72 72 68 66 65 61 57 54 53 55 60 65 66 63 61 61 61 61 62 64 68 72 73 76 78 76 76 78 79 78 78 78 78 80 84 87 88 91 95 98 100 100 99 99 100 102 102 101 98
65 68 71 73 76 79 80 80 81 81 80 80 80 81 81 80 80 77 74 72 73 73 74 76 77 77 75 74 74 75 75 76 77 76 73 73 75 74 71 68 65 61 59 59 60 63 67 69 67 64 63 63 63 63 64 67 71 74 76 78 79 78 78 80 80 80 80 80 81 84 87 88 91 94 98 100 101 101 100 100 101 103 104 102 99
63 64 66 67 70 73 75 78 80 81 81 82 83 83 83 83 82 81 78 76 76 76 77 79 81 80 78 76 75 77 78 79 79 76 74 75 76 75 74 71 67 65 66 65 64 65 66 65 64 63 63 63 64 65 66 70 74 76 77 79 79 79 80 81 81 82 82 81 83 86 88 90 93 97 99 101 102 102 101 101 103 105 105 104 99
62 63 64 65 67 69 70 72 74 76 78 81 82 83 84 84 84 82 81 79 78 79 80 82 83 82 79 77 76 77 79 80 79 77 76 77 78 76 75 74 72 71 69 65 62 61 61 60 61 61 62 63 65 66 69 72 75 77 78 79 80 81 82 82 83 83 83 83 86 88 90 92 96 99 100 102 104 103 102 102 104 106 106 104 100
61 62 63 64 66 67 68 69 69 69 71 75 77 79 81 82 83 83 82 81 81 81 82 83 83 81 80 80 79 79 79 80 79 79 79 80 78 77 77 76 73 69 64 59 57 57 56 56 58 60 62 64 66 68 72 75 77 77 79 80 82 83 84 84 84 84 84 85 87 89 91 94 98 100 102 103 105 104 104 104 105 106 106 104 101
62 62 63 63 64 66 66 67 67 67 67 68 70 73 75 78 80 81 81 81 81 81 82 83 81 80 80 81 80 79 80 80 81 81 81 80 78 76 74 70 65 60 58 56 55 54 54 55 58 61 63 65 68 71 74 76 77 78 80 82 83 85 85 85 85 85 85 86 88 90 93 96 100 102 103 105 106 106 105 105 106 106 106 105 101
62 62 62 63 64 64 64 65 66 67 67 67 67 69 71 73 75 77 78 78 78 79 80 81 79 77 77 77 77 77 78 79 80 80 80 79 76 71 64 59 57 57 58 57 55 53 55 58 59 61 64 67 70 73 75 76 77 79 81 83 85 86 86 86 86 86 85 87 90 92 95 98 101 102 104 106 107 106 106 106 106 106 106 105 102
63 62 61 61 62 62 62 64 65 66 66 66 66 67 67 69 71 73 74 75 74 74 75 75 74 73 73 71 71 72 74 75 76 78 77 74 67 59 54 53 55 58 59 58 57 56 58 59 60 62 66 69 72 74 76 77 78 80 83 85 86 87 87 87 86 85 85 88 91 93 97 100 102 103 105 106 107 107 106 106 106 106 106 106 103
63 62 61 61 61 61 62 63 64 65 66 65 65 65 65 66 67 69 71 71 70 69 68 68 66 64 64 65 67 69 71 73 73 73 69 63 57 53 52 55 59 60 59 59 59 60 61 62 63 65 69 71 73 75 76 77 79 82 84 86 87 87 88 87 85 84 86 89 92 95 98 100 102 103 105 106 107 107 107 106 106 106 106 106 104
63 62 62 61 61 61 62 62 63 64 64 64 65 65 65 65 67 67 67 67 65 63 61 60 57 54 53 58 65 68 70 73 73 70 64 61 58 58 59 61 64 63 62 61 62 63 64 64 66 68 71 73 74 76 77 79 81 83 85 86 87 88 87 86 84 84 87 90 93 96 99 101 102 104 105 107 108 108 107 106 106 106 107 106 104
63 62 61 60 61 61 61 61 62 62 62 63 64 64 65 67 66 65 63 62 60 57 54 51 48 44 42 48 59 65 67 68 68 66 65 65 65 65 65 67 68 67 64 65 66 66 65 66 68 70 72 74 75 77 79 80 82 84 85 86 87 88 86 84 84 85 88 91 94 96 99 101 102 104 105 107 108 108 108 107 106 106 107 106 104
63 61 60 60 60 61 61 60 60 59 59 60 61 62 64 66 64 62 58 53 49 46 44 41 39 36 36 45 58 65 64 63 61 57 57 61 66 67 66 66 67 68 67 67 68 69 68 68 69 71 73 75 77 78 80 82 82 84 85 86 87 87 85 83 84 86 89 92 94 97 99 101 102 104 106 108 109 109 108 107 106 107 107 106 104
64 61 59 60 60 60 59 58 57 56 57 57 59 60 61 61 60 55 47 38 33 34 34 31 27 28 33 45 56 61 62 62 60 57 56 60 66 69 68 65 65 66 68 69 70 70 69 68 70 72 75 76 78 80 81 82 82 84 86 87 86 85 84 84 85 87 89 92 95 97 99 100 101 104 107 108 109 109 108 107 107 107 107 106 104
64 62 60 60 59 58 57 54 53 53 54 55 57 59 57 54 49 41 33 28 28 31 33 30 28 31 38 49 58 63 63 61 61 62 62 64 67 67 66 64 65 67 68 70 70 69 68 69 70 73 76 78 79 80 80 81 83 85 87 86 85 83 83 84 85 87 89 93 95 97 98 99 101 104 107 108 108 109 108 107 107 108 107 106 104
65 63 62 61 59 57 54 52 51 51 50 50 52 52 47 43 39 34 31 33 36 39 41 41 39 41 46 53 58 58 56 57 62 66 66 67 67 63 56 56 62 67 68 68 68 67 68 69 71 74 77 79 79 80 80 82 85 86 86 85 83 83 83 84 85 87 90 93 95 96 97 99 102 105 107 108 108 108 108 107 107 107 107 105 104
65 64 63 62 59 56 52 50 50 49 47 46 46 44 38 36 37 34 33 37 43 48 52 52 49 49 50 54 57 55 52 54 59 61 62 64 64 59 53 53 61 67 67 66 67 67 68 70 72 76 78 79 79 80 81 84 86 86 84 83 82 82 83 84 85 87 91 93 94 95 97 100 103 105 106 107 107 108 108 107 107 107 106 105 103
65 64 63 62 59 54 51 49 49 47 45 44 44 42 37 35 38 37 34 35 42 52 58 58 55 54 56 61 65 61 54 52 53 54 55 58 59 57 56 58 64 67 66 66 67 68 69 72 75 77 78 79 80 82 83 85 86 85 83 82 82 83 83 84 85 88 91 93 94 95 98 100 103 105 105 105 107 108 107 106 107 107 105 104 102
65 65 64 62 58 52 49 49 47 46 45 44 45 42 35 32 33 37 37 31 30 38 53 61 62 63 65 67 67 61 53 49 52 54 54 55 56 58 59 62 65 66 66 67 69 70 71 73 76 77 79 80 82 84 85 87 87 85 83 82 83 83 84 84 86 89 91 92 94 96 98 100 103 104 104 105 107 107 106 106 107 106 104 103 101
65 65 63 60 55 50 48 48 46 45 45 46 45 41 36 30 24 25 29 27 21 20 37 53 61 67 69 66 60 57 55 54 55 55 55 54 54 56 59 63 66 67 68 69 71 72 73 75 77 79 81 83 84 86 87 87 86 84 82 83 83 84 84 84 87 89 91 92 94 96 98 100 102 103 103 105 107 107 106 106 106 105 103 102 99
65 65 63 59 53 48 48 48 46 45 47 48 45 41 38 38 35 26 19 22 29 29 37 48 58 64 65 60 54 53 56 56 56 57 56 54 52 54 60 66 69 70 70 71 73 74 75 77 79 81 84 85 86 87 88 87 85 83 83 83 83 83 83 85 87 89 90 92 94 96 98 100 101 102 103 105 106 106 105 105 106 105 103 101 99
66 64 61 58 52 47 47 48 47 47 49 49 47 42 37 40 49 47 39 32 34 42 43 49 58 62 61 58 55 54 56 58 58 57 55 53 51 54 59 64 68 70 72 74 74 75 77 79 81 83 85 86 87 88 87 86 84 82 83 83 82 82 84 86 88 88 90 92 93 95 98 99 100 101 103 105 105 105 105 105 105 104 102 100 98
66 64 61 57 51 47 48 50 49 50 51 50 48 46 40 40 52 57 48 39 43 50 52 55 61 62 61 61 60 59 60 60 59 57 55 55 56 59 62 65 69 72 74 74 75 77 78 80 82 84 86 87 88 87 86 84 82 82 83 82 82 83 85 86 87 88 90 92 93 96 98 98 99 101 103 104 105 105 104 104 104 103 101 99 97
65 63 60 55 51 48 49 52 51 52 54 53 51 51 49 52 62 66 62 58 58 60 61 64 67 68 69 68 66 63 61 60 60 59 59 61 63 67 69 71 72 73 73 74 76 78 80 82 84 85 86 88 88 86 84 83 82 83 83 82 82 84 85 86 87 88 90 92 94 97 97 97 98 101 103 104 104 104 104 104 103 102 100 98 96
65 63 59 55 51 50 51 53 54 54 55 57 58 58 58 61 65 69 71 70 67 65 65 67 70 72 73 71 66 62 59 58 59 61 62 63 65 67 69 71 71 72 73 75 77 79 81 83 85 87 88 88 87 85 83 82 83 83 83 82 83 85 85 86 87 89 90 93 95 96 96 97 99 101 102 103 104 104 103 103 103 101 99 97 95
65 63 59 55 53 53 52 53 55 57 57 59 62 65 66 66 66 65 63 61 59 59 60 61 63 66 67 66 64 62 60 59 60 61 62 64 65 66 68 69 71 72 75 77 79 82 84 85 87 88 88 87 85 83 82 83 84 84 83 83 84 85 85 86 88 89 92 94 95 95 96 97 99 101 102 103 103 103 103 103 102 100 98 96 94
66 63 60 57 55 55 56 56 56 58 60 61 64 68 71 71 68 65 61 57 56 56 56 57 59 62 64 65 66 66 65 65 65 65 66 66 67 68 70 71 73 76 78 80 82 84 85 86 87 87 85 83 82 82 83 84 84 83 83 84 84 84 85 87 89 91 93 94 94 94 96 98 99 100 102 102 103 103 103 103 102 99 96 94 93
67 64 61 58 57 57 59 58 57 58 62 64 66 69 73 75 73 70 66 63 60 58 57 57 59 61 64 66 67 68 69 69 69 69 69 69 70 71 73 76 78 80 82 83 84 85 85 85 84 82 81 81 81 83 83 83 83 83 84 84 84 85 86 88 90 93 94 94 94 94 96 97 99 100 101 102 102 102 102 102 101 98 95 93 92
67 65 62 60 59 60 60 60 59 60 63 66 68 69 73 76 76 75 73 70 67 65 64 63 62 62 63 64 66 68 69 70 71 71 71 73 74 76 78 79 80 81 82 82 82 81 80 80 79 79 80 82 82 83 82 82 83 84 85 85 85 86 87 90 92 93 93 93 94 95 96 97 98 100 101 101 102 102 102 102 100 96 93 92 91
66 65 64 62 61 62 62 62 62 63 64 65 68 70 73 76 78 79 79 77 74 72 72 71 70 68 66 65 65 65 67 69 71 72 73 74 75 76 77 77 78 78 78 78 78 78 78 79 80 82 83 83 83 82 82 83 84 84 85 85 86 87 89 92 93 93 93 94 94 95 96 97 99 99 100 101 102 102 102 101 98 94 92 91 91
67 66 65 63 62 63 63 64 65 66 66 66 67 70 72 75 78 80 81 82 81 80 79 78 79 78 77 75 73 72 71 70 70 71 72 73 74 75 76 77 77 78 78 78 79 80 81 83 84 84 84 83 83 83 82 83 84 85 86 87 88 90 91 92 93 93 94 94 94 95 96 98 99 99 100 101 101 102 102 100 97 93 91 90 90
68 66 65 64 63 62 63 65 66 68 69 69 69 69 72 75 78 80 81 83 84 84 84 85 85 85 84 85 85 84 82 80 79 79 79 79 79 80 80 81 81 81 82 82 83 85 85 86 87 86 86 85 84 83 83 83 84 86 88 89 90 91 92 93 93 94 95 94 94 95 96 97 98 99 100 100 101 102 102 99 95 92 90 90 90
Wind_Direction
246 248 250 253 256 259 261 262 263 264 266 266 267 268 270 272 275 278 281 284 288 293 297 299 301 304 306 308 311 313 315 316 318 319 320 320 321 323 325 326 327 329 330 332 333 335 336 336 336 337 338 339 338 337 335 335 337 338 338 339 341 342 342 341 340 339 337 335 333 331 329 329 328 328 326 323 319 319 322 323 324 328 334 337 336
252 253 253 253 255 257 259 260 261 262 263 264 265 266 269 272 274 276 279 282 285 289 293 296 298 301 303 306 307 309 311 312 314 315 316 316 317 320 321 323 325 327 330 330 331 333 334 334 334 335 336 337 336 335 334 334 335 338 339 338 340 341 341 340 338 338 338 336 334 332 330 330 329 328 325 321 319 320 322 324 328 333 336 336 334
256 256 256 255 256 257 258 260 261 261 261 262 263 264 267 271 273 276 280 282 283 286 291 293 295 298 301 303 304 305 306 308 310 312 313 313 314 316 318 319 323 326 328 329 329 330 331 332 332 333 334 335 334 333 334 334 332 336 338 338 339 340 340 338 337 336 337 336 335 333 331 329 328 326 324 321 321 322 323 327 332 336 336 334 332
257 257 257 256 256 258 258 260 260 261 261 261 262 263 265 268 271 275 278 279 281 285 289 292 294 296 299 301 302 302 303 305 308 310 310 310 310 313 315 317 321 323 325 326 326 327 328 328 329 331 332 334 333 332 333 333 329 332 336 336 338 340 338 336 335 334 335 336 335 334 332 329 327 325 323 322 322 324 327 333 335 335 334 332 331
257 258 258 257 257 258 259 260 261 262 262 262 262 262 264 266 268 272 275 277 281 285 288 290 293 295 297 299 299 300 301 303 305 308 308 307 308 311 313 316 319 321 322 323 323 324 325 325 326 329 331 333 332 329 331 332 329 330 332 332 336 339 337 335 335 334 334 334 334 334 332 330 328 326 324 323 324 326 332 336 335 333 333 331 330
258 258 258 258 258 259 260 261 262 262 262 262 263 264 264 266 268 271 275 278 281 284 287 289 291 294 295 296 297 298 300 301 303 306 306 305 307 309 312 315 317 318 319 320 321 322 322 323 324 327 330 332 331 327 329 330 329 329 330 329 332 337 336 335 335 333 333 334 334 333 333 331 329 327 326 326 327 329 335 337 333 331 332 330 330
257 258 258 258 259 259 260 262 263 263 263 264 265 265 266 267 269 273 276 279 281 283 286 288 290 292 293 293 295 297 299 299 301 304 304 304 306 309 311 313 314 316 317 318 318 319 320 321 323 325 329 331 329 327 326 326 325 328 330 327 327 332 335 335 334 333 333 334 334 334 333 332 330 329 328 330 331 333 337 337 332 330 331 330 330
256 257 258 258 258 259 260 261 262 263 263 265 266 267 268 270 271 274 276 278 280 283 285 287 288 289 290 291 294 297 297 298 300 302 303 303 304 307 309 311 313 314 315 316 317 318 319 321 322 325 328 328 326 324 324 322 322 325 327 325 324 329 334 335 333 334 335 335 335 334 333 331 330 330 331 333 335 335 336 335 331 329 330 331 331
255 257 257 257 258 259 260 261 262 263 264 265 267 268 270 271 272 274 275 277 280 283 284 285 286 287 288 290 294 296 296 297 299 300 301 302 303 305 307 309 312 313 314 315 316 317 318 321 322 324 326 325 324 324 324 322 321 323 324 324 325 330 335 335 333 334 336 336 335 335 333 331 330 331 333 336 336 335 333 332 330 331 331 331 331
254 255 257 257 257 258 259 261 262 263 264 265 267 268 270 271 272 273 275 277 280 282 283 284 284 285 287 290 293 294 295 297 299 299 300 301 303 304 306 309 311 312 314 315 316 317 318 320 322 324 325 324 323 324 325 323 321 321 324 327 329 334 336 335 334 335 337 337 336 336 334 331 331 334 336 337 336 333 331 330 331 332 332 332 332
253 254 256 257 258 258 258 260 261 262 263 265 266 268 269 271 272 273 274 276 278 281 283 284 284 285 287 290 291 292 294 297 298 298 299 301 303 304 306 309 310 312 314 315 316 317 317 320 324 324 321 319 320 321 324 324 320 320 325 331 334 336 337 335 335 337 338 337 337 336 334 332 333 337 339 337 334 331 330 331 332 332 332 333 333
253 254 256 258 259 259 259 259 260 261 262 264 266 267 269 270 271 271 273 275 278 280 282 283 283 285 287 289 290 292 293 295 296 297 298 301 302 304 306 308 310 312 314 316 316 316 317 320 321 316 310 312 316 320 323 323 319 320 327 333 336 337 337 336 337 338 338 338 337 335 334 335 337 339 338 335 331 329 330 331 332 332 333 334 334
252 254 256 258 259 260 260 260 261 261 263 264 266 267 269 269 270 271 273 275 278 279 280 282 284 285 287 288 289 291 293 294 295 296 298 300 302 304 306 308 311 313 315 316 316 315 317 318 315 309 308 313 317 320 322 322 320 322 328 333 336 337 337 337 338 338 338 337 336 335 337 339 339 338 335 331 329 329 331 331 331 332 334 335 334
252 254 255 256 258 258 259 260 261 262 264 265 267 268 269 270 270 271 273 275 278 279 280 282 283 284 285 287 289 290 292 292 294 296 298 300 302 304 306 308 311 313 315 316 317 316 316 316 313 310 310 312 316 317 319 323 325 327 331 335 336 337 338 338 338 338 337 336 336 337 340 340 337 334 331 328 328 329 331 331 332 334 335 335 335
253 254 255 256 257 257 258 259 260 261 262 264 266 267 268 269 270 271 273 276 277 279 280 281 282 283 285 286 288 289 290 292 294 296 298 301 302 304 306 308 310 312 315 317 317 314 312 311 311 310 307 308 313 315 319 325 330 332 334 336 337 338 338 337 337 336 335 336 338 340 340 338 334 331 328 328 329 330 330 332 333 336 337 337 336
254 255 256 256 257 258 258 259 260 260 261 262 264 266 267 268 269 271 273 274 276 278 279 280 281 283 284 285 287 288 290 292 294 296 299 300 302 304 305 306 308 312 316 317 313 308 306 307 309 310 309 311 313 316 321 327 331 333 335 336 336 337 337 337 336 335 335 337 340 340 338 334 331 329 328 329 330 330 331 333 335 337 338 338 337
255 255 256 257 257 258 258 259 260 261 262 263 263 265 266 267 269 271 272 273 275 277 278 279 281 282 283 284 286 287 290 292 294 296 298 300 302 304 304 304 308 313 316 313 305 302 306 311 314 316 315 315 316 320 325 329 331 334 334 335 336 336 336 335 335 335 337 339 339 338 335 332 330 329 330 331 330 330 332 335 338 339 339 338 337
255 255 256 256 257 258 258 260 261 262 263 263 263 263 265 267 268 270 272 274 275 276 277 279 280 281 282 283 285 288 290 292 293 295 297 299 301 302 301 304 309 313 312 306 299 302 310 315 316 316 314 316 319 322 325 328 331 333 333 334 335 335 334 334 334 336 338 339 338 336 334 331 330 331 332 331 331 332 335 338 339 340 339 338 337
256 256 255 255 256 257 258 259 260 262 263 263 264 264 265 265 267 269 272 274 274 275 276 277 278 280 281 283 285 287 289 291 292 293 295 297 299 299 301 304 308 311 308 300 296 304 312 314 314 312 312 315 318 321 324 327 330 331 332 333 333 333 333 333 334 336 338 337 336 334 332 331 332 332 332 332 332 334 337 338 339 339 339 338 337
256 256 256 256 256 257 258 259 259 260 262 263 264 265 265 266 267 268 270 272 273 274 275 276 277 279 280 282 284 286 288 289 290 291 292 295 296 298 300 303 305 307 304 296 293 300 307 309 309 309 310 313 316 319 323 326 329 330 331 332 331 331 332 332 334 336 336 335 335 333 332 332 333 333 333 333 334 335 337 338 339 339 339 339 338
256 257 258 258 258 259 259 259 259 260 261 262 263 265 266 267 267 268 269 270 273 274 276 276 277 278 279 281 283 285 286 287 287 289 291 293 295 297 299 301 302 303 299 294 292 295 300 304 306 306 307 310 313 316 321 324 326 328 329 330 329 329 330 332 334 335 334 334 334 332 332 333 333 333 334 335 335 336 337 338 339 340 340 340 340
260 260 260 261 261 261 261 261 261 261 261 262 263 264 265 266 267 268 268 269 271 273 275 276 276 277 278 280 282 283 284 285 285 288 291 293 294 296 298 299 299 297 295 292 291 293 297 301 302 303 304 307 310 314 319 321 323 325 327 327 327 327 329 331 333 333 333 333 333 332 332 333 333 334 335 335 335 335 337 338 339 341 341 341 340
264 264 264 263 263 263 263 263 263 263 263 263 263 264 265 266 267 268 268 269 270 271 273 274 274 275 276 278 280 282 283 283 284 288 292 292 293 295 296 297 296 294 292 292 293 295 298 300 299 301 303 305 308 313 316 318 319 322 324 324 324 326 328 330 332 332 332 332 332 332 332 332 333 334 335 335 335 336 337 339 340 342 342 341 340
265 266 266 266 266 266 265 265 264 264 265 265 265 265 266 267 267 268 268 269 269 270 270 271 273 275 278 279 281 282 282 282 285 289 291 291 292 294 295 296 295 294 294 296 297 298 298 297 297 300 302 304 308 311 313 315 317 320 321 322 323 325 327 329 330 330 330 331 331 331 332 332 334 334 335 335 336 336 338 340 341 342 342 341 341
265 265 266 266 267 267 267 267 267 266 266 267 267 267 268 268 268 269 269 269 269 270 270 271 273 276 278 279 280 281 282 283 285 288 289 290 291 293 294 295 295 295 297 298 298 296 295 294 296 300 302 305 308 310 311 314 316 318 319 320 321 323 325 327 329 329 329 330 330 331 331 332 333 334 335 335 336 337 338 340 341 342 342 342 341
266 266 265 265 266 266 267 268 269 268 268 268 268 268 268 268 269 269 269 270 270 271 271 272 273 274 275 277 279 280 281 282 284 287 288 288 290 292 293 293 294 296 297 297 295 292 290 291 294 298 302 305 306 307 310 313 315 316 318 319 320 322 324 326 327 328 328 329 330 330 331 332 333 334 334 335 336 338 339 340 341 342 342 341 341
267 267 267 266 265 266 266 267 268 268 268 268 268 269 269 270 270 270 271 270 270 270 271 273 274 274 275 276 278 279 280 282 284 285 285 286 289 292 292 291 293 295 296 295 293 289 287 288 292 297 300 301 303 305 308 311 313 314 316 317 318 321 323 325 326 327 328 328 329 330 330 332 333 334 334 336 337 338 339 340 341 341 341 341 341
267 267 267 266 266 266 266 266 266 267 268 269 270 271 271 272 272 273 273 272 272 272 273 274 275 277 278 279 279 279 281 282 282 282 283 286 290 290 288 288 292 295 296 296 294 290 287 288 290 294 297 298 301 304 306 309 311 313 314 316 318 320 322 324 325 326 327 327 328 329 330 331 332 333 334 335 337 338 339 339 340 341 341 341 341
266 266 266 266 266 266 266 266 266 267 267 269 270 271 272 273 273 273 274 274 275 275 275 276 276 276 278 279 280 281 282 283 283 283 285 288 289 287 284 285 290 293 295 297 295 291 288 288 290 292 295 297 300 303 305 307 310 311 312 314 317 319 320 323 324 326 326 327 327 328 329 331 332 333 334 335 337 338 338 339 340 341 341 341 341
265 266 266 266 266 266 266 267 267 267 268 269 269 270 271 271 271 272 274 275 276 277 278 279 279 277 276 274 274 275 275 276 278 280 282 283 281 278 278 281 285 289 293 295 295 292 289 288 290 292 294 297 299 301 304 306 308 310 312 314 316 317 320 322 324 325 325 325 326 327 329 331 332 333 334 335 336 337 338 338 340 340 341 341 341
264 265 266 266 266 266 266 266 265 265 265 265 266 268 269 270 270 271 274 276 278 280 281 280 278 277 274 271 270 269 269 271 274 276 279 279 276 274 275 277 279 283 289 292 293 291 289 288 290 293 294 295 298 300 302 305 307 309 311 313 315 317 320 322 323 324 324 324 325 327 329 330 331 332 333 335 335 336 337 338 339 340 340 341 340
264 265 265 265 265 265 265 265 265 264 263 262 263 265 266 267 269 272 274 275 275 277 278 279 277 275 272 268 267 267 269 271 274 275 275 273 272 272 273 273 274 278 284 288 289 289 288 289 291 292 293 294 296 298 300 303 306 308 310 312 314 317 319 321 322 322 323 324 325 327 328 330 331 332 333 334 335 336 337 338 339 340 340 340 340
266 266 266 265 265 264 264 264 263 262 262 262 262 261 262 265 268 269 269 269 271 275 277 277 278 276 268 263 264 266 268 270 272 272 269 267 268 268 268 268 272 276 280 284 286 287 287 289 290 291 291 292 294 296 299 303 306 308 310 311 314 316 318 320 321 321 322 323 325 327 328 329 330 332 333 333 334 335 336 337 339 340 340 340 340
268 268 268 268 267 265 265 263 261 260 261 261 260 259 261 263 262 258 257 262 272 276 272 272 279 281 270 261 263 268 271 273 275 275 273 270 269 268 265 266 269 273 276 280 283 285 286 288 290 290 290 291 293 296 300 303 305 307 308 310 313 315 317 319 320 320 321 323 325 326 327 329 330 331 332 333 334 335 336 337 339 340 339 339 339
268 269 270 270 269 268 267 265 262 262 261 258 256 256 254 250 246 248 259 272 276 273 269 269 275 278 269 260 259 262 265 272 279 280 277 274 269 265 262 263 265 268 272 277 280 283 287 289 289 288 289 291 293 297 300 302 303 305 307 310 312 315 316 318 319 319 321 322 324 325 327 328 329 330 331 332 333 335 336 337 339 339 339 339 339
268 269 270 270 270 270 269 266 265 264 260 254 248 242 237 236 238 245 260 272 272 273 275 275 271 265 258 251 249 252 258 269 278 281 278 273 267 259 256 259 262 265 271 276 280 284 287 288 288 288 289 291 294 296 298 300 302 304 307 309 312 314 316 317 317 318 320 322 323 325 326 327 329 330 331 332 333 334 335 336 338 339 338 338 338
266 268 268 269 270 270 268 266 265 264 257 246 235 227 228 238 245 248 259 273 271 265 263 262 257 253 249 245 247 255 264 270 275 276 273 266 259 252 251 256 260 265 271 277 280 283 285 285 285 287 288 290 293 295 297 299 301 304 306 309 311 313 314 315 316 318 319 321 322 324 325 327 329 330 330 331 332 333 334 336 338 338 338 337 338
265 266 266 267 268 268 266 264 264 261 251 236 225 224 231 239 238 231 235 253 267 257 248 245 244 244 244 244 249 257 263 267 272 273 267 259 255 253 253 255 259 265 272 277 279 281 282 282 283 285 286 288 291 293 296 298 301 303 306 308 310 312 313 314 315 317 318 320 322 323 325 327 328 329 329 331 332 333 334 336 337 337 337 337 337
263 263 264 265 266 264 263 262 260 255 244 230 225 229 233 233 228 220 222 238 255 236 222 227 232 235 236 239 247 256 261 266 272 272 265 259 256 254 252 254 258 264 271 276 277 278 279 280 281 283 284 287 289 292 295 298 300 303 305 307 309 311 311 313 315 316 317 319 321 323 325 326 327 327 329 330 331 332 333 335 336 336 336 336 337
260 261 262 263 263 261 260 259 255 247 238 230 228 232 232 228 226 218 213 241 255 237 216 216 223 226 229 234 244 253 259 263 269 270 265 261 258 254 253 255 258 263 269 273 274 275 276 278 280 281 283 286 289 292 295 297 300 302 304 306 308 309 310 312 314 315 317 319 321 323 324 325 326 327 329 330 330 331 333 334 335 335 335 335 336
258 260 261 261 261 258 254 252 248 242 236 230 228 230 230 225 218 201 177 179 213 226 226 225 223 224 229 236 244 252 257 260 264 265 261 257 256 257 257 258 259 262 266 269 271 273 276 277 279 281 283 286 289 292 294 297 299 301 304 306 307 308 309 311 313 315 316 318 320 322 323 324 325 327 328 329 329 330 332 334 335 335 334 335 336
256 258 259 259 258 254 248 245 242 239 235 230 227 227 222 208 200 195 188 190 207 221 228 230 227 230 238 245 251 257 260 261 261 259 255 252 253 254 256 257 259 262 265 268 271 274 276 277 279 281 284 287 289 292 294 296 298 301 303 305 305 307 309 311 313 314 316 318 319 321 322 323 325 326 327 328 328 329 331 333 334 334 334 335 336
254 256 256 256 254 250 243 240 239 238 234 229 225 224 217 203 198 205 220 234 239 239 238 236 235 240 248 254 258 261 262 261 260 257 254 251 250 251 253 257 261 264 267 270 272 274 275 277 279 281 284 286 289 291 294 296 298 300 302 304 305 306 309 311 312 313 315 317 318 320 321 322 324 325 326 326 327 329 330 332 333 333 333 334 335
253 254 254 253 250 245 241 238 239 239 236 230 225 223 221 218 217 223 233 242 247 248 246 244 245 248 253 256 260 262 262 261 260 258 256 255 254 255 257 261 264 267 270 271 273 274 275 277 279 281 283 286 289 291 293 295 298 300 302 303 305 307 308 310 311 312 314 316 317 319 320 322 323 324 325 325 326 328 329 331 332 332 333 334 335
252 253 252 251 247 242 240 239 239 239 237 233 228 226 227 229 232 236 241 245 249 251 251 251 252 253 254 255 257 259 260 261 260 258 258 259 259 261 263 265 268 270 271 272 272 274 275 277 279 281 283 286 288 291 293 295 298 300 301 303 305 307 308 309 310 312 313 315 317 318 320 321 322 323 323 324 325 327 328 330 331 331 332 333 335
253 253 252 249 245 242 241 241 240 239 237 234 230 228 230 234 238 240 242 246 249 252 253 254 254 255 256 257 258 259 261 262 262 262 262 263 264 266 268 269 270 271 271 271 272 273 275 277 280 282 284 287 289 291 294 296 298 300 302 303 305 306 307 308 309 311 313 314 316 318 319 320 321 321 322 323 325 326 328 329 330 330 331 333 335
254 254 252 249 245 244 244 244 242 241 239 237 233 231 231 235 240 243 243 244 246 249 252 254 256 257 258 260 261 262 263 264 265 266 267 268 269 269 269 269 269 269 269 270 272 274 277 279 281 283 286 288 290 292 295 297 299 300 302 303 304 305 306 307 308 310 312 314 315 316 317 318 319 320 321 323 324 325 327 328 329 329 330 332 334
253 254 254 251 249 247 246 246 246 245 242 240 238 236 235 236 240 244 245 244 244 245 248 252 255 257 258 259 261 263 264 266 267 268 269 268 268 267 266 266 266 267 269 272 274 277 280 281 283 285 287 289 292 294 296 298 299 301 302 302 303 304 305 306 308 310 312 313 314 315 316 317 318 319 320 322 323 324 326 327 328 328 330 332 334
253 254 254 253 252 251 249 247 247 247 245 243 241 241 240 239 240 243 245 246 245 245 246 249 251 254 256 257 258 259 260 261 263 263 263 263 263 263 264 266 268 270 273 276 279 281 282 283 284 286 289 291 293 295 297 298 299 300 300 301 302 303 304 305 307 309 311 312 313 314 315 316 317 318 320 321 322 323 325 326 326 327 329 331 334
254 255 255 254 253 252 251 249 247 247 246 244 243 244 244 244 244 245 246 247 247 247 247 248 249 251 253 254 256 257 258 259 260 261 262 264 265 267 269 272 274 276 278 280 281 282 283 284 286 288 290 292 294 296 297 298 298 298 299 300 301 302 303 305 307 308 309 310 311 312 314 315 316 317 319 320 321 322 324 324 325 327 329 331 333
256 256 256 256 254 252 251 250 249 248 247 246 244 243 245 246 247 248 248 249 250 250 250 251 251 251 252 253 255 256 258 261 264 266 268 270 271 273 275 277 278 280 281 282 282 283 285 286 288 290 292 293 294 295 296 296 296 297 298 299 300 301 302 304 306 307 308 309 310 311 312 314 315 316 318 319 320 321 322 323 324 326 328 330 332
Height
10956 10956 10957 10958 10958 10958 10958 10959 10959 10959 10959 10960 10960 10961 10961 10961 10960 10959 10958 10958 10958 10958 10957 10957 10956 10955 10954 10953 10953 10952 10951 10950 10949 10947 10946 10944 10943 10942 10941 10939 10938 10937 10935 10933 10932 10930 10927 10924 10922 10919 10918 10916 10913 10912 10910 10908 10905 10903 10901 10899 10896 10893 10890 10887 10884 10881 10877 10873 10869 10865 10861 10859 10856 10853 10851 10848 10845 10842 10840 10838 10834 10831 10827 10824 10820
10953 10953 10954 10955 10955 10955 10955 10955 10956 10956 10956 10956 10957 10957 10958 10958 10957 10956 10955 10955 10954 10954 10954 10953 10953 10952 10951 10950 10949 10949 10948 10946 10945 10944 10942 10941 10939 10939 10938 10936 10934 10933 10931 10929 10927 10926 10923 10921 10918 10916 10914 10912 10909 10907 10905 10903 10901 10899 10897 10894 10892 10888 10885 10882 10878 10875 10872 10869 10865 10861 10857 10854 10851 10849 10846 10843 10841 10838 10835 10832 10828 10824 10820 10817 10813
10950 10950 10951 10951 10952 10952 10952 10952 10952 10952 10952 10953 10953 10954 10955 10954 10954 10952 10951 10951 10950 10950 10951 10950 10949 10949 10948 10947 10946 10945 10944 10943 10942 10940 10939 10937 10936 10935 10934 10932 10931 10929 10927 10925 10923 10922 10920 10917 10915 10912 10910 10908 10906 10903 10901 10899 10897 10895 10892 10889 10886 10883 10879 10876 10873 10870 10867 10864 10860 10857 10853 10850 10847 10844 10841 10837 10835 10832 10829 10825 10821 10817 10813 10810 10805
10946 10946 10947 10948 10948 10948 10948 10948 10948 10948 10948 10949 10949 10950 10951 10951 10950 10949 10948 10947 10946 10947 10947 10946 10945 10945 10944 10943 10942 10942 10941 10940 10939 10937 10936 10933 10932 10931 10930 10929 10927 10926 10924 10922 10921 10919 10917 10914 10912 10909 10907 10904 10901 10899 10896 10894 10892 10891 10888 10885 10882 10879 10875 10871 10868 10864 10860 10857 10855 10852 10849 10845 10843 10840 10837 10833 10829 10826 10822 10818 10813 10810 10807 10802 10797
10942 10943 10943 10944 10944 10945 10945 10944 10944 10944 10945 10945 10946 10946 10946 10946 10945 10945 10944 10943 10942 10943 10943 10942 10941 10941 10941 10940 10938 10937 10937 10936 10935 10934 10932 10929 10928 10927 10925 10924 10923 10921 10920 10918 10917 10916 10914 10911 10909 10907 10904 10901 10897 10894 10891 10888 10886 10885 10883 10880 10878 10875 10871 10867 10862 10858 10854 10851 10848 10846 10843 10840 10837 10834 10832 10828 10824 10820 10817 10812 10807 10804 10800 10795 10790
10938 10938 10939 10940 10940 10940 10940 10940 10940 10941 10941 10941 10941 10942 10942 10941 10940 10940 10940 10939 10938 10938 10939 10938 10937 10937 10937 10935 10934 10933 10932 10931 10931 10930 10928 10925 10923 10922 10921 10920 10918 10917 10915 10913 10912 10911 10909 10907 10905 10903 10901 10897 10892 10888 10885 10883 10881 10879 10877 10875 10872 10869 10866 10862 10857 10853 10849 10845 10842 10839 10836 10833 10830 10827 10824 10822 10818 10814 10810 10806 10800 10797 10794 10787 10781
10933 10933 10934 10935 10936 10936 10936 10936 10936 10936 10936 10936 10937 10937 10937 10936 10936 10936 10936 10935 10934 10933 10934 10934 10933 10933 10932 10931 10930 10929 10928 10927 10926 10925 10923 10921 10919 10918 10916 10915 10914 10913 10911 10909 10907 10906 10904 10902 10901 10899 10897 10893 10888 10883 10880 10878 10877 10874 10872 10870 10867 10864 10860 10856 10853 10849 10844 10840 10836 10832 10828 10825 10823 10820 10817 10814 10809 10805 10802 10799 10791 10786 10784 10779 10771
10928 10928 10929 10930 10930 10931 10932 10932 10931 10931 10932 10932 10931 10932 10932 10932 10932 10932 10932 10931 10929 10929 10929 10930 10929 10927 10927 10926 10926 10925 10923 10922 10922 10921 10919 10917 10915 10914 10912 10911 10910 10909 10907 10905 10903 10901 10900 10898 10896 10894 10891 10888 10883 10879 10876 10874 10873 10871 10869 10866 10863 10859 10855 10851 10847 10843 10839 10834 10829 10825 10822 10819 10816 10814 10810 10806 10800 10794 10793 10793 10786 10778 10773 10768 10761
10923 10923 10924 10924 10925 10927 10927 10927 10927 10926 10926 10926 10926 10927 10927 10927 10927 10927 10927 10927 10926 10924 10924 10924 10923 10921 10921 10921 10921 10920 10918 10918 10917 10916 10915 10913 10911 10910 10908 10907 10906 10905 10903 10901 10899 10896 10894 10893 10891 10888 10885 10881 10877 10875 10873 10870 10868 10867 10865 10862 10859 10855 10850 10846 10842 10838 10833 10828 10823 10820 10816 10813 10810 10807 10804 10799 10794 10787 10783 10782 10779 10771 10764 10756 10747
10918 10918 10917 10917 10920 10922 10922 10922 10922 10921 10921 10921 10921 10922 10922 10922 10922 10922 10922 10923 10922 10920 10918 10919 10918 10916 10916 10917 10916 10915 10913 10913 10913 10912 10910 10909 10907 10905 10904 10902 10901 10900 10898 10896 10894 10892 10889 10887 10884 10881 10878 10875 10871 10870 10869 10867 10864 10863 10861 10858 10854 10850 10846 10841 10836 10832 10827 10822 10818 10814 10811 10807 10803 10800 10796 10790 10786 10782 10776 10771 10766 10760 10754 10745 10735
10912 10912 10911 10911 10915 10917 10917 10917 10916 10916 10915 10916 10916 10917 10917 10917 10917 10917 10917 10918 10918 10916 10913 10913 10912 10911 10911 10912 10911 10909 10908 10908 10908 10907 10906 10904 10902 10900 10899 10897 10896 10894 10893 10891 10890 10888 10885 10882 10879 10875 10871 10870 10868 10865 10864 10862 10861 10858 10856 10852 10849 10844 10840 10835 10831 10826 10821 10817 10812 10809 10806 10802 10796 10792 10788 10783 10779 10776 10771 10764 10758 10751 10743 10736 10726
10906 10907 10905 10906 10909 10911 10910 10911 10910 10910 10910 10910 10911 10912 10912 10912 10912 10912 10912 10913 10914 10913 10909 10906 10906 10906 10906 10906 10905 10904 10904 10903 10902 10902 10901 10900 10897 10895 10893 10892 10890 10888 10887 10886 10884 10882 10880 10879 10876 10872 10868 10865 10864 10862 10860 10858 10856 10853 10850 10846 10843 10838 10834 10829 10825 10820 10816 10811 10807 10804 10800 10795 10789 10784 10781 10777 10772 10767 10762 10757 10751 10743 10735 10726 10717
10900 10901 10901 10901 10902 10903 10903 10904 10904 10904 10904 10905 10906 10906 10907 10906 10906 10906 10907 10908 10909 10908 10904 10902 10902 10901 10901 10901 10900 10899 10899 10898 10897 10897 10896 10895 10893 10890 10888 10886 10885 10883 10882 10880 10878 10875 10874 10873 10871 10866 10863 10861 10859 10857 10856 10854 10851 10848 10845 10841 10837 10832 10828 10823 10818 10814 10810 10806 10802 10798 10793 10787 10781 10777 10774 10771 10765 10759 10753 10747 10740 10733 10724 10715 10706
10895 10895 10896 10896 10895 10895 10896 10896 10896 10897 10898 10899 10900 10901 10900 10900 10900 10900 10902 10903 10904 10903 10900 10898 10897 10896 10895 10895 10895 10894 10894 10892 10892 10892 10892 10891 10889 10886 10883 10881 10879 10878 10876 10875 10872 10869 10867 10867 10865 10860 10857 10856 10855 10852 10850 10849 10845 10842 10839 10834 10829 10825 10821 10817 10812 10808 10804 10800 10796 10790 10785 10779 10775 10771 10768 10764 10758 10752 10745 10737 10729 10721 10712 10702 10693
10889 10889 10889 10890 10889 10888 10889 10889 10889 10890 10892 10893 10895 10895 10894 10893 10893 10894 10896 10897 10898 10897 10895 10893 10892 10890 10890 10889 10889 10889 10887 10887 10887 10887 10887 10886 10884 10882 10879 10876 10874 10872 10870 10868 10866 10864 10861 10860 10860 10857 10852 10850 10849 10847 10844 10842 10839 10836 10832 10827 10822 10819 10815 10811 10807 10803 10799 10794 10788 10782 10777 10773 10769 10766 10761 10756 10750 10744 10736 10727 10718 10709 10699 10689 10680
10882 10883 10883 10883 10882 10882 10882 10881 10882 10883 10886 10888 10889 10889 10887 10886 10886 10888 10890 10892 10892 10891 10890 10887 10886 10886 10885 10884 10883 10883 10881 10881 10881 10881 10881 10881 10880 10877 10874 10871 10869 10867 10864 10862 10860 10858 10856 10854 10853 10852 10849 10845 10843 10841 10837 10835 10832 10828 10824 10820 10816 10813 10809 10805 10800 10797 10793 10787 10781 10775 10771 10767 10764 10760 10754 10748 10742 10735 10727 10717 10707 10697 10688 10678 10669
10876 10876 10876 10876 10875 10874 10874 10874 10875 10877 10880 10883 10883 10882 10881 10880 10881 10882 10883 10885 10887 10886 10884 10881 10880 10880 10879 10878 10877 10877 10876 10876 10875 10875 10876 10876 10875 10872 10868 10866 10864 10861 10859 10857 10854 10852 10850 10848 10846 10845 10844 10841 10838 10835 10831 10827 10824 10821 10817 10814 10811 10808 10803 10799 10795 10790 10785 10779 10774 10769 10766 10762 10758 10753 10747 10740 10733 10726 10717 10706 10695 10685 10677 10669 10661
10868 10868 10868 10868 10866 10866 10866 10868 10870 10871 10872 10875 10875 10875 10874 10874 10874 10874 10876 10879 10880 10879 10877 10875 10875 10874 10872 10871 10872 10871 10871 10870 10870 10869 10869 10870 10870 10866 10863 10860 10859 10856 10853 10851 10849 10847 10844 10841 10840 10839 10837 10835 10832 10829 10825 10821 10818 10815 10812 10809 10805 10802 10797 10793 10788 10783 10778 10772 10768 10764 10760 10756 10751 10745 10738 10732 10725 10716 10705 10695 10684 10676 10667 10660 10652
10857 10857 10857 10858 10858 10858 10859 10862 10864 10864 10865 10866 10866 10867 10867 10867 10867 10869 10870 10872 10872 10871 10871 10869 10868 10867 10866 10865 10866 10866 10865 10865 10864 10863 10863 10864 10863 10860 10857 10856 10853 10850 10848 10846 10843 10841 10838 10835 10834 10832 10831 10829 10826 10823 10820 10816 10812 10809 10805 10802 10799 10795 10791 10787 10782 10777 10771 10767 10763 10758 10754 10749 10743 10737 10730 10723 10715 10705 10695 10686 10677 10668 10659 10651 10642
10846 10845 10846 10849 10851 10851 10852 10855 10857 10857 10857 10858 10858 10858 10858 10859 10861 10863 10865 10864 10863 10863 10864 10862 10861 10860 10860 10860 10860 10860 10860 10859 10857 10856 10857 10858 10856 10854 10853 10851 10847 10844 10843 10841 10838 10835 10832 10829 10828 10826 10825 10822 10819 10816 10813 10809 10806 10802 10798 10795 10792 10789 10785 10781 10776 10770 10766 10761 10757 10753 10748 10743 10736 10730 10723 10714 10705 10696 10687 10678 10669 10659 10650 10640 10631
10837 10837 10838 10841 10843 10844 10845 10847 10848 10849 10849 10850 10850 10849 10849 10850 10852 10855 10858 10858 10857 10856 10856 10855 10854 10854 10853 10854 10854 10853 10853 10852 10849 10848 10850 10851 10849 10848 10847 10845 10841 10838 10836 10834 10832 10829 10826 10823 10821 10820 10818 10816 10813 10810 10807 10803 10799 10796 10792 10788 10786 10783 10779 10774 10769 10765 10760 10756 10751 10746 10741 10735 10729 10722 10715 10706 10697 10688 10680 10671 10660 10649 10639 10630 10622
10830 10831 10832 10834 10835 10835 10837 10839 10839 10840 10841 10842 10842 10841 10841 10842 10843 10846 10850 10852 10851 10850 10849 10847 10846 10846 10847 10847 10847 10845 10845 10843 10840 10841 10844 10844 10841 10840 10840 10838 10834 10831 10829 10827 10825 10823 10820 10817 10815 10813 10812 10809 10806 10803 10800 10797 10794 10790 10786 10783 10780 10777 10773 10768 10763 10759 10754 10750 10745 10740 10734 10728 10722 10715 10707 10698 10690 10681 10672 10662 10651 10639 10629 10622 10615
10824 10824 10826 10826 10827 10827 10828 10830 10830 10831 10832 10833 10833 10834 10834 10835 10836 10838 10841 10844 10844 10843 10841 10838 10836 10837 10839 10841 10841 10839 10836 10833 10832 10835 10837 10835 10832 10832 10832 10830 10827 10824 10821 10820 10819 10817 10814 10811 10808 10807 10805 10803 10800 10797 10794 10792 10788 10785 10781 10778 10775 10771 10766 10762 10757 10752 10747 10743 10738 10733 10726 10720 10715 10708 10700 10692 10683 10673 10664 10653 10642 10631 10622 10614 10607
10818 10819 10818 10818 10818 10818 10819 10820 10822 10824 10824 10823 10824 10826 10827 10827 10829 10831 10833 10834 10834 10834 10832 10829 10828 10830 10832 10833 10833 10830 10827 10825 10825 10827 10827 10825 10824 10824 10823 10821 10818 10816 10813 10812 10812 10810 10807 10804 10802 10801 10798 10796 10793 10790 10788 10786 10783 10779 10776 10772 10769 10764 10760 10756 10751 10746 10741 10736 10731 10725 10719 10713 10707 10700 10693 10685 10676 10666 10655 10645 10635 10625 10616 10608 10601
10812 10813 10812 10811 10810 10810 10810 10810 10813 10815 10816 10815 10816 10817 10817 10818 10819 10821 10823 10824 10825 10824 10823 10822 10822 10824 10825 10823 10822 10821 10819 10817 10817 10817 10817 10815 10816 10816 10814 10812 10810 10808 10806 10805 10804 10803 10800 10798 10796 10794 10792 10789 10787 10784 10782 10779 10776 10773 10770 10766 10762 10758 10754 10749 10744 10739 10734 10729 10725 10719 10713 10706 10699 10693 10685 10678 10669 10658 10647 10637 10629 10620 10611 10603 10595
10806 10805 10804 10804 10803 10802 10803 10803 10803 10805 10806 10807 10808 10807 10807 10807 10808 10809 10812 10814 10815 10815 10814 10813 10815 10817 10817 10815 10813 10812 10810 10809 10809 10808 10807 10806 10807 10808 10807 10805 10803 10801 10799 10798 10797 10795 10793 10791 10789 10788 10786 10783 10781 10778 10776 10774 10771 10768 10764 10760 10756 10752 10748 10743 10738 10733 10727 10723 10718 10713 10706 10700 10693 10685 10678 10670 10660 10650 10640 10630 10622 10613 10605 10598 10590
10798 10797 10797 10796 10796 10796 10797 10797 10796 10796 10797 10798 10799 10799 10799 10799 10798 10799 10801 10803 10805 10806 10805 10804 10806 10808 10808 10808 10806 10804 10802 10802 10801 10799 10798 10797 10799 10801 10801 10799 10797 10794 10792 10791 10790 10788 10786 10785 10783 10782 10780 10777 10775 10773 10771 10768 10765 10762 10757 10753 10750 10745 10741 10736 10732 10726 10721 10716 10711 10706 10700 10693 10686 10679 10671 10662 10653 10644 10634 10625 10615 10607 10598 10591 10584
10789 10789 10788 10788 10788 10788 10789 10789 10789 10788 10789 10790 10791 10791 10791 10791 10791 10790 10790 10791 10793 10796 10797 10798 10799 10800 10801 10800 10798 10796 10795 10794 10791 10789 10788 10790 10793 10794 10793 10791 10789 10787 10786 10785 10784 10782 10780 10779 10778 10776 10774 10772 10770 10768 10765 10763 10760 10756 10751 10747 10743 10739 10735 10730 10725 10720 10715 10710 10705 10699 10693 10687 10679 10672 10664 10655 10647 10638 10629 10620 10610 10601 10592 10585 10577
10781 10780 10780 10780 10780 10780 10780 10780 10780 10780 10781 10782 10783 10783 10783 10784 10783 10782 10780 10781 10783 10785 10787 10789 10792 10795 10796 10795 10792 10789 10786 10780 10776 10776 10780 10784 10786 10785 10784 10783 10781 10780 10779 10779 10778 10776 10773 10772 10772 10771 10769 10766 10764 10762 10759 10757 10754 10749 10745 10741 10737 10733 10728 10724 10720 10715 10709 10704 10698 10693 10687 10680 10672 10665 10657 10649 10641 10633 10624 10615 10605 10596 10587 10580 10572
10773 10773 10772 10772 10772 10772 10772 10772 10772 10772 10773 10774 10774 10775 10776 10775 10774 10774 10774 10774 10775 10777 10779 10781 10783 10788 10791 10790 10787 10785 10780 10773 10768 10769 10774 10777 10778 10777 10777 10777 10774 10773 10773 10773 10771 10769 10767 10765 10765 10765 10763 10760 10758 10756 10753 10751 10748 10743 10739 10735 10731 10726 10722 10718 10713 10709 10704 10698 10692 10686 10680 10673 10665 10658 10650 10643 10635 10627 10619 10610 10601 10591 10583 10575 10567
10765 10765 10765 10765 10764 10764 10764 10764 10764 10764 10765 10765 10765 10767 10768 10767 10767 10768 10769 10769 10770 10772 10772 10773 10775 10779 10784 10785 10782 10779 10776 10773 10772 10772 10773 10773 10772 10772 10773 10772 10769 10768 10768 10767 10765 10763 10762 10760 10760 10759 10757 10754 10752 10750 10748 10745 10742 10737 10733 10729 10724 10720 10716 10712 10708 10703 10698 10692 10686 10680 10673 10666 10659 10652 10644 10637 10629 10621 10613 10605 10595 10586 10578 10571 10563
10757 10757 10758 10757 10757 10756 10756 10756 10756 10757 10757 10757 10759 10761 10760 10759 10760 10762 10763 10764 10765 10765 10766 10767 10769 10772 10777 10779 10776 10773 10772 10772 10772 10773 10774 10772 10770 10769 10769 10768 10765 10763 10763 10762 10760 10758 10756 10755 10755 10753 10750 10748 10746 10744 10742 10739 10736 10731 10727 10723 10718 10714 10710 10706 10702 10697 10691 10685 10679 10673 10666 10659 10652 10645 10638 10631 10623 10616 10607 10599 10590 10581 10573 10567 10560
10747 10748 10749 10748 10748 10748 10748 10749 10749 10749 10749 10750 10751 10753 10753 10753 10754 10755 10756 10757 10759 10760 10761 10763 10765 10769 10773 10774 10770 10766 10767 10769 10770 10770 10771 10769 10765 10764 10763 10762 10760 10758 10757 10756 10755 10753 10752 10750 10749 10747 10744 10743 10741 10739 10736 10733 10730 10726 10721 10717 10712 10708 10705 10701 10696 10691 10685 10679 10672 10666 10659 10652 10646 10639 10632 10625 10618 10610 10602 10593 10585 10576 10569 10562 10555
10738 10738 10739 10739 10740 10740 10741 10742 10742 10742 10742 10743 10743 10744 10746 10748 10748 10748 10749 10750 10752 10755 10757 10759 10762 10766 10770 10769 10764 10760 10761 10763 10764 10764 10764 10762 10760 10757 10757 10757 10755 10753 10752 10752 10750 10749 10747 10746 10744 10742 10739 10737 10735 10733 10731 10728 10724 10720 10715 10711 10707 10703 10699 10695 10690 10684 10678 10672 10666 10660 10653 10647 10641 10634 10627 10620 10612 10604 10596 10588 10580 10572 10565 10558 10551
10728 10729 10729 10730 10731 10732 10733 10734 10734 10734 10735 10735 10735 10737 10741 10743 10743 10744 10745 10744 10743 10745 10749 10754 10758 10762 10764 10763 10760 10758 10758 10757 10756 10755 10754 10753 10752 10750 10749 10749 10748 10747 10747 10747 10745 10743 10742 10740 10738 10736 10733 10731 10729 10728 10725 10722 10718 10714 10710 10705 10701 10697 10693 10689 10684 10678 10672 10666 10660 10654 10648 10641 10635 10629 10622 10615 10607 10599 10592 10584 10576 10568 10561 10554 10548
10719 10720 10720 10721 10722 10724 10725 10726 10726 10725 10726 10727 10728 10731 10735 10737 10736 10737 10738 10738 10737 10739 10744 10749 10754 10757 10758 10755 10753 10754 10756 10754 10750 10747 10744 10743 10742 10741 10741 10741 10741 10741 10742 10741 10739 10738 10736 10734 10732 10729 10727 10725 10723 10722 10720 10716 10712 10708 10703 10699 10695 10691 10687 10682 10678 10672 10666 10660 10654 10649 10643 10636 10629 10623 10616 10609 10602 10595 10587 10580 10572 10565 10558 10552 10545
10710 10711 10712 10712 10714 10716 10718 10718 10718 10718 10718 10720 10722 10724 10727 10728 10727 10727 10729 10732 10734 10736 10740 10745 10751 10754 10752 10746 10744 10747 10749 10747 10744 10740 10736 10733 10733 10732 10732 10733 10734 10735 10735 10735 10733 10731 10729 10727 10725 10722 10720 10719 10717 10715 10713 10710 10706 10701 10697 10692 10689 10685 10680 10676 10672 10666 10660 10655 10649 10643 10637 10630 10623 10617 10611 10605 10597 10590 10583 10576 10568 10561 10555 10549 10542
10702 10703 10704 10705 10707 10709 10710 10710 10711 10711 10712 10714 10715 10718 10720 10721 10719 10719 10722 10725 10728 10729 10732 10737 10743 10746 10743 10738 10737 10739 10738 10736 10734 10731 10727 10725 10724 10724 10725 10727 10728 10728 10728 10728 10726 10725 10723 10720 10718 10716 10714 10712 10711 10709 10706 10703 10699 10695 10690 10686 10682 10678 10674 10670 10666 10660 10655 10649 10643 10637 10631 10624 10617 10612 10607 10600 10593 10586 10579 10572 10564 10558 10552 10546 10539
10694 10695 10696 10698 10700 10702 10702 10703 10705 10706 10707 10708 10709 10711 10715 10716 10714 10716 10719 10720 10720 10722 10725 10728 10731 10734 10734 10732 10731 10730 10727 10725 10724 10723 10719 10717 10717 10718 10719 10720 10720 10721 10721 10720 10719 10718 10716 10714 10712 10710 10707 10706 10704 10703 10700 10696 10692 10688 10683 10679 10676 10672 10668 10664 10660 10654 10648 10642 10636 10630 10624 10618 10612 10607 10601 10595 10588 10582 10575 10568 10561 10554 10549 10543 10536
10685 10687 10688 10690 10693 10694 10695 10696 10698 10699 10701 10702 10703 10705 10709 10711 10712 10715 10720 10721 10719 10719 10721 10721 10722 10723 10723 10722 10720 10718 10717 10716 10716 10714 10713 10711 10711 10711 10712 10713 10713 10714 10714 10713 10712 10711 10710 10708 10705 10703 10700 10699 10698 10696 10693 10689 10685 10681 10676 10673 10669 10665 10661 10657 10653 10647 10641 10635 10629 10624 10618 10613 10608 10602 10596 10589 10584 10578 10572 10565 10558 10551 10545 10538 10532
10676 10678 10680 10682 10684 10687 10688 10689 10691 10693 10695 10697 10698 10700 10702 10705 10708 10709 10710 10712 10716 10718 10716 10713 10712 10711 10708 10706 10706 10707 10707 10708 10708 10706 10706 10705 10705 10705 10706 10706 10706 10706 10706 10706 10705 10705 10703 10701 10699 10696 10694 10692 10691 10688 10685 10681 10678 10674 10670 10666 10663 10659 10654 10651 10646 10640 10634 10629 10623 10617 10612 10608 10603 10597 10590 10585 10580 10574 10568 10561 10555 10548 10541 10534 10527
10668 10670 10672 10674 10677 10680 10682 10683 10685 10687 10689 10691 10693 10694 10696 10700 10704 10703 10696 10693 10699 10705 10705 10702 10701 10698 10695 10695 10698 10699 10699 10699 10699 10699 10698 10699 10699 10699 10699 10698 10699 10699 10699 10700 10699 10698 10696 10694 10692 10689 10687 10685 10683 10680 10677 10674 10670 10667 10663 10660 10656 10652 10648 10644 10639 10633 10628 10623 10617 10612 10607 10603 10598 10591 10586 10581 10576 10570 10564 10557 10551 10544 10538 10531 10523
10660 10662 10665 10668 10670 10673 10675 10677 10679 10681 10683 10685 10686 10687 10690 10692 10694 10693 10688 10684 10686 10691 10692 10692 10692 10690 10689 10689 10691 10691 10691 10691 10691 10691 10691 10691 10692 10692 10692 10692 10693 10694 10694 10693 10692 10690 10689 10686 10684 10682 10680 10677 10675 10672 10669 10666 10663 10659 10656 10653 10649 10645 10641 10637 10631 10627 10622 10617 10611 10606 10601 10597 10592 10586 10581 10576 10571 10565 10559 10553 10547 10541 10534 10527 10519
10652 10654 10657 10661 10663 10666 10669 10672 10673 10674 10676 10677 10677 10678 10681 10683 10683 10682 10680 10680 10680 10681 10682 10683 10684 10683 10682 10683 10683 10683 10684 10684 10684 10684 10684 10685 10685 10686 10687 10687 10688 10687 10687 10686 10684 10682 10680 10678 10676 10674 10672 10670 10667 10665 10662 10659 10655 10652 10649 10645 10641 10637 10634 10629 10624 10620 10615 10610 10605 10600 10595 10590 10586 10581 10576 10571 10566 10561 10555 10549 10543 10537 10530 10523 10516
10644 10647 10650 10654 10657 10659 10661 10664 10665 10666 10668 10671 10671 10670 10670 10671 10672 10672 10672 10672 10673 10673 10673 10674 10674 10674 10674 10675 10675 10676 10677 10677 10677 10677 10678 10678 10679 10680 10680 10680 10680 10679 10679 10677 10676 10674 10672 10670 10668 10666 10664 10662 10660 10657 10654 10651 10647 10644 10640 10637 10634 10630 10626 10622 10617 10612 10608 10604 10599 10594 10589 10584 10580 10575 10571 10566 10561 10556 10550 10544 10538 10533 10526 10519 10512
10636 10640 10643 10646 10649 10652 10653 10655 10657 10660 10661 10663 10665 10664 10662 10661 10661 10661 10663 10664 10664 10664 10665 10665 10666 10666 10666 10666 10667 10668 10668 10668 10668 10669 10670 10671 10672 10672 10672 10672 10672 10671 10669 10668 10666 10665 10664 10662 10661 10659 10656 10654 10652 10649 10646 10643 10639 10634 10632 10629 10626 10622 10619 10614 10609 10605 10601 10597 10592 10588 10583 10579 10575 10570 10566 10561 10556 10551 10545 10539 10534 10528 10522 10516 10508
10628 10631 10635 10638 10641 10644 10645 10647 10650 10652 10654 10655 10657 10658 10656 10653 10652 10652 10653 10654 10654 10655 10657 10657 10658 10658 10658 10658 10658 10659 10659 10658 10659 10661 10662 10663 10664 10664 10664 10663 10662 10661 10659 10658 10657 10657 10656 10654 10652 10650 10648 10646 10643 10641 10638 10634 10629 10625 10623 10620 10618 10614 10611 10606 10601 10597 10594 10589 10585 10581 10577 10573 10569 10564 10560 10555 10550 10545 10540 10535 10529 10524 10518 10512 10505
10620 10623 10626 10629 10632 10634 10637 10640 10642 10643 10644 10646 10648 10650 10649 10647 10645 10644 10643 10644 10646 10648 10649 10649 10650 10650 10650 10650 10650 10649 10649 10650 10651 10653 10654 10655 10655 10655 10654 10654 10653 10652 10651 10650 10650 10648 10646 10644 10642 10641 10639 10637 10634 10631 10628 10625 10620 10617 10614 10612 10609 10606 10602 10598 10593 10590 10586 10582 10578 10575 10571 10567 10563 10559 10554 10549 10544 10540 10535 10530 10525 10519 10513 10507 10501
10613 10615 10618 10621 10623 10625 10627 10630 10632 10632 10633 10635 10638 10640 10641 10641 10639 10636 10635 10636 10638 10639 10639 10640 10640 10640 10641 10641 10642 10642 10643 10644 10645 10646 10647 10647 10647 10647 10646 10645 10644 10643 10642 10641 10639 10637 10635 10633 10632 10630 10629 10627 10625 10622 10619 10615 10611 10608 10605 10603 10601 10597 10593 10589 10585 10582 10578 10575 10571 10568 10564 10560 10556 10552 10548 10543 10538 10534 10530 10525 10520 10515 10509 10503 10497
10604 10606 10609 10611 10613 10615 10617 10619 10620 10622 10623 10626 10629 10631 10633 10633 10632 10630 10629 10628 10628 10629 10630 10630 10629 10629 10631 10633 10633 10634 10636 10638 10638 10639 10639 10638 10637 10636 10635 10634 10632 10631 10630 10628 10627 10625 10623 10622 10621 10620 10618 10617 10615 10613 10611 10607 10603 10598 10596 10593 10591 10588 10584 10580 10577 10573 10570 10567 10564 10561 10557 10553 10549 10545 10541 10537 10532 10528 10524 10519 10515 10510 10504 10498 10493
10594 10596 10599 10601 10603 10604 10606 10607 10609 10611 10613 10615 10619 10622 10624 10623 10622 10623 10622 10620 10620 10621 10620 10618 10617 10620 10622 10622 10622 10623 10626 10628 10628 10627 10627 10627 10625 10623 10622 10621 10619 10618 10617 10616 10614 10613 10611 10610 10609 10609 10608 10607 10606 10604 10602 10599 10595 10590 10586 10584 10582 10578 10575 10571 10568 10565 10562 10559 10557 10553 10549 10546 10542 10538 10534 10530 10526 10522 10518 10514 10509 10504 10499 10494 10489